Flag for U.S.A. Weather past 2 weeks in Compton, California, U.S.A.

Now
67 °F

Sunny.


Feels Like: 67 °F
Forecast: 56 / 73 °F
Wind: No wind

Location: Hawthorne Municipal Airport

Current Time: Jan 29, 2015 at 9:10:12 AM

Latest Report: Jan 29, 2015 at 8:53 AM


Visibility: 10 mi

Pressure: 30.05 "Hg

Humidity: 44%

Dew point: 44 °F

Location of ComptonLocation

Historic Weather in Compton — Graph

°F

Compton temperature yesterday

Maximum temperature yesterday: 74 °F (at 12:53 PM)
Minimum temperature yesterday: 56 °F (at 2:53 AM)
Average temperature yesterday: 64 °F

Past Weeks' High & Low Weather Summary

 TemperatureHumidityPressure
High83 °F (Jan 25, 12:53 PM)100% (Jan 20, 4:53 AM)30.27 "Hg (Jan 20, 4:53 AM)
Low50 °F (Jan 22, 4:53 AM)8% (Jan 22, 12:53 PM)29.93 "Hg (Jan 20, 4:53 PM)
Average63 °F55%30.11 "Hg
* Reported Jan 14 7:53 AM — Jan 29 7:53 AM, Compton, Weather by CustomWeather, © 2014

Note: Actual official high and low records may vary slightly from our data, if they occured in-between our weather recording intervals... More about our weather records

Advertising

Compton weather history for previous 24 hours

 ConditionsComfort  
Time TempWeatherWind HumidityBarometerVisibility
7:53 AM
Jan 29
65 °FSunny.No wind47%30.03 "Hg10 mi
6:53 AM64 °FSunny.No wind50%30.03 "Hg10 mi
5:53 AM63 °FClear.No wind54%30.02 "Hg10 mi
4:53 AM64 °FClear.No wind52%30.01 "Hg10 mi
3:53 AM63 °FClear.No wind54%30.02 "Hg10 mi
2:53 AM64 °FClear.No wind52%30.04 "Hg10 mi
1:53 AM63 °FClear.No wind60%30.04 "Hg10 mi
12:53 AM63 °FClear.No wind63%30.04 "Hg10 mi
11:53 PM
Jan 28
64 °FClear.No wind61%30.05 "Hg10 mi
10:53 PM65 °FClear.No wind66%30.06 "Hg10 mi
9:53 PM63 °FClear.No wind75%30.09 "Hg10 mi
8:53 PM64 °FClear.No wind75%30.08 "Hg10 mi
7:53 PM64 °FClear.No wind73%30.08 "Hg10 mi
6:53 PM67 °FClear.3 mph55%30.08 "Hg10 mi
5:53 PM68 °FClear.No wind53%30.07 "Hg10 mi
4:53 PM68 °FSunny.No wind53%30.06 "Hg10 mi
3:53 PM68 °FSunny.5 mph53%30.07 "Hg10 mi
2:53 PM68 °FSunny.9 mph57%30.08 "Hg10 mi
1:53 PM72 °FSunny.5 mph44%30.06 "Hg10 mi
12:53 PM74 °FSunny.No wind31%30.07 "Hg10 mi
11:53 AM72 °FSunny.No wind37%30.09 "Hg10 mi
10:53 AM71 °FSunny.3 mph38%30.12 "Hg10 mi
9:53 AM68 °FSunny.5 mph44%30.14 "Hg10 mi
Weather by CustomWeather, © 2014

See weather overviewHow to use our weather pages